Regional Weather Roundup
Issued by NWS Wakefield, VA

Home | Current Version | Previous Version | Text Only | Print | Product List | Glossary Off
Versions: 1 2 3 4 5 6 7 8 9 10 11 12 13 14 15 16 17 18 19 20 21 22 23 24 25 26 27 28 29 30 31 32 33 34 35 36 37 38 39 40 41 42 43 44 45 46 47 48 49 50

000
ASUS41 KAKQ 211410
RWRAKQ

REGIONAL WEATHER ROUNDUP
NATIONAL WEATHER SERVICE WAKEFIELD VA
900 AM EST FRI NOV 21 2014

Note: "fair" indicates few or no clouds below 12,000 feet with no
significant weather and/or obstructions to visibility. * = Denotes
station may not report precipitation (e.g., rain,snow,etc.),
thunder or fog.

VAZ042-051-052>054-056-211500-
NORTHERN VIRGINIA

CITY           SKY/WX    TMP DP  RH WIND       PRES   REMARKS
WASH NATIONAL  NOT AVBL
DULLES         SUNNY     29   8  41 NW16G23   30.42R WCI  17
FORT BELVOIR   SUNNY     32   8  35 NW16      30.44R WCI  22
QUANTICO       MOSUNNY   33   7  33 N14G23    30.45R WCI  23
FREDERICKSBRG* SUNNY     35  12  39 NW8       30.42R
STAFFORD*      SUNNY     32  11  41 CALM      30.47R
WARRENTON      SUNNY     33  16  48 NW12      30.42R WCI  25
CULPEPER*      SUNNY     34  10  37 N7        30.43R
MANASSAS*      SUNNY     32  10  40 NW17G26   30.43R WCI  21
LEESBURG*      SUNNY     32  14  47 NW13G20   30.42R WCI  22
WINCHESTER     MOSUNNY   30   3  31 NW18      30.39R WCI  18
FRONT ROYAL*   SUNNY     30   9  40 NW6G20    30.40R
LURAY*         SUNNY     32  10  40 NW16      30.39R WCI  21
$$

VAZ048-049-060>072-079>083-211500-
CENTRAL AND SOUTH CENTRAL VIRGINIA

CITY           SKY/WX    TMP DP  RH WIND       PRES   REMARKS
RICHMOND       MOSUNNY   36  14  40 NW13      30.41R
CHESTERFIELD*  SUNNY     36  10  35 NW8       30.42R
PETERSBURG*    SUNNY     37  19  48 N6        30.42R
HANOVER        SUNNY     35  14  42 NW6       30.43R
TAPPAHANNOCK*  SUNNY     34  10  37 NW7       30.42R
QUINTON*       FAIR      32  15  49 N7        30.42R
CHARLOTTSVILLE SUNNY     32   8  36 W5        30.40R
GORDONSVILLE*  SUNNY     32   9  38 NW7       30.41R
ORANGE*        SUNNY     34  12  40 CALM      30.42R
LOUISA*        SUNNY     34  10  37 NW6       30.40R
BUMPASS*       FAIR      33  10  38 NW5       30.41R
FARMVILLE*     SUNNY     40  12  32 N5        30.41R
CREWE*         SUNNY     35  12  39 NW8       30.40R
FORT PICKETT*  SUNNY     35  13  40 N8        30.41R
LUNENBURG*     SUNNY     35  15  44 NW7       30.40R
CHASE CITY*    FAIR      37  18  46 NW7       30.41R
CLARKSVILLE*   FAIR      36  16  44 NW9       30.41R
SOUTH HILL*    SUNNY     36  16  43 N9G16     30.47R
LAWRENCEVILLE* SUNNY     37  17  45 NW5       30.41R
$$

VAZ088>098-211500-
SOUTHEAST VIRGINIA

CITY           SKY/WX    TMP DP  RH WIND       PRES   REMARKS
NORFOLK        SUNNY     39  16  39 N14G20    30.39R
VIRGINIA BEACH MOSUNNY   41  19  41 NW16G23   30.38R
NORFOLK NAVAL  MOSUNNY   41  16  36 N14       30.41R
WEST POINT*    SUNNY     36  16  43 NW9       30.43R
SALUDA*        FAIR      33  16  49 NW12G17   30.40R WCI  25
NEWPORT NEWS   SUNNY     39  15  37 N12G22    30.40R
LANGLEY AFB    SUNNY     37  15  41 NW13      30.41R
FORT EUSTIS    SUNNY     37  15  41 NW8       30.39R
WILLIAMSBURG*  SUNNY     37  19  48 N8        30.42R
HR EXEC AP*    SUNNY     37  19  48 N8        30.42R
FRANKLIN*      SUNNY     36  18  48 N6        30.41R
WAKEFIELD      SUNNY     35  17  47 NE8       30.42R
$$

VAZ020-022-025-037-045-211500-
WEST CENTRAL AND SOUTHWEST VIRGINIA

CITY           SKY/WX    TMP DP  RH WIND       PRES   REMARKS
STAUNTON*      SUNNY     30   6  36 NW8       30.39R
WAYNESBORO*    SUNNY     28  10  48 CALM      30.35R
HOT SPRINGS VA MOSUNNY   17   8  67 W13G23    30.17R WCI   4
LYNCHBURG      SUNNY     31  11  43 NW7       30.41R
DANVILLE       SUNNY     38  13  35 NW10      30.42R
SOUTH BOSTON*  SUNNY     36  12  37 NW9       30.43R
MARTINSVILLE   SUNNY     34  16  46 N6        30.43R
ROANOKE        SUNNY     30  10  43 NW8       30.41R
BLACKSBURG     SUNNY     27  16  63 W12G20    30.35R WCI  16
DUBLIN*        SUNNY     28  13  52 W9        30.36R
MARION*        SUNNY     26  10  50 W15G23    30.36R WCI  14
HILLSVILLE*    SUNNY     25  12  57 NW10      30.31R WCI  15
RICHLANDS*     SUNNY     25  17  71 NW3       30.36R
WISE*          SUNNY     27  16  63 NW3       30.37R
ABINGDON*      SUNNY     29  15  55 NW3       30.40R
$$

MDZ021>025-VAZ099-100-211500-
SOUTHERN MARYLAND AND THE DELMARVA PENINSULA

CITY           SKY/WX    TMP DP  RH WIND       PRES   REMARKS
PATUXENT RIVER MOSUNNY   34  10  37 NW21      30.41R WCI  22
BAY BRIDGE APT   N/A     32   9  37 NW21      30.41R WCI  20
LEONARDTOWN    SUNNY     32  10  40 NW5       30.43R
DOVER          SUNNY     32  10  40 W15G22    30.35R WCI  22
GEORGETOWN     SUNNY     33   8  35 NW10G20   30.39R WCI  25
EASTON         MOSUNNY   34  10  37 NW20G29   30.44R WCI  22
CAMBRIDGE      MOSUNNY   36  10  35 NW10G18   30.40R
SALISBURY      SUNNY     35  10  35 NW21G30   30.38R WCI  24
OCEAN CITY     SUNNY     34   9  35 NW13G31   30.37R WCI  25
WALLOPS ISLAND SUNNY     34  11  38 N17G26    30.38R WCI  23
ACCOMACK*      SUNNY     36  18  48 NW9G25    30.38R
$$

NCZ012>017-030>032-211500-
NORTH CENTRAL AND EASTERN NORTH CAROLINA

CITY           SKY/WX    TMP DP  RH WIND       PRES   REMARKS
ROANOKE RAPIDS SUNNY     37  19  48 N12G18    30.41R
RALEIGH        MOSUNNY   38  18  44 VRB6      30.40R
ELIZABETH CITY SUNNY     43  25  49 N15       30.38R
AHOSKIE*       SUNNY     37  19  49 N9        30.41R
EDENTON*         N/A     39  25  58 N12       30.38R
CURRITUCK*     SUNNY     40  24  53 N10G17    30.38R
KILL DEVIL HLS SUNNY     45  29  55 NW9G18    30.33R
MANTEO         SUNNY     44  32  62 N13       30.35R
CAPE HATTERAS  SUNNY     45  33  63 NW8G17    30.34R
TARBORO*       SUNNY     39  23  54 N10       30.40R
GOLDSBORO      SUNNY     42  22  45 N10       30.39R
WASHINGTON     SUNNY     40  22  47 N9        30.39R
GREENVILLE     SUNNY     41  23  48 N8        30.39R
NEW BERN       SUNNY     45  22  40 N14       30.40R
WILMINGTON     SUNNY     48  29  47 N12       30.37R
$$

VAZ048-211500-
ELSEWHERE

CITY           SKY/WX    TMP DP  RH WIND       PRES   REMARKS
HARRISBURG PA  SUNNY     28   9  44 NW21      30.37R WCI  15
BALTIMORE      MOSUNNY   31   7  36 W14G24    30.40R WCI  21
ANNAPOLIS      SUNNY     32  12  43 NW10G21   30.42R WCI  24
ANDREWS AFB    MOSUNNY   32   8  36 NW14      30.41R WCI  22
PHILADELPHIA   SUNNY     30   7  37 NW20G29   30.36R WCI  17
WILDWOOD NJ*   SUNNY     34   9  35 W15G24    30.34R WCI  24
HENDERSON NC   SUNNY     36  14  40 N10G17    30.40R
GREENSBORO     PTSUNNY   38  13  35 N12G17    30.38R
ROCKY MOUNT    SUNNY     39  19  44 N15G24    30.39R
$$

VAZ100-211500-
MARINE

STATION/POSITION TIME  TEMP    WIND        PRES    WAVE   SWELL
                       AIR SEA DIR/SP/G            HT/PER HT/PER
                 (UTC) (F)     (DEG/KT/KT) (MB)    (FT/S) (FT/S)
CAPE MAY NJ      1400   33 46  310/ 23/ 32 1027.3R
LEWES DE         1400   32 46  310/ 26/ 31 1028.1R
15NM E FENWICK I 1400   36 54              1026.7R   8/ 6
OCEAN-CITY-INLET 1400   34 49  340/ 18/ 23 1027.7R
WACHAPREAGUE VA  1400   37 42  330/  6/ 15 1028.3R
THOMAS POINT MD  1400   31 47  310/ 18/ 22 1030.7R
GOOSES REEF MD   1400   33 48  330/ 16/ 23 1030.2R   2/ 2
COVE POINT MD    1400   32     330/ 14/ 19 1029.4R
SOLOMONS ISLAND  1400      47                N/A
BISHOPS HEAD MD  1400   33 37  330/ 15/ 22 1028.9R
PINEY POINT MD   1400          350/ 21/ 24   N/A
POTOMAC MD       1400   36 49  340/ 17/ 23 1029.0R
CAMBRIDGE MD     1400   33 42  300/ 14/ 19 1029.2R
LEWISETTA VA     1400   34 44  340/ 12/ 19 1029.4R
RAPPAHANNOCK LGT 1400          330/ 22/ 26 1029.2R
STINGRAY PT      1400   36 49  340/ 14/ 17 1029.5R   1/ 3
YORK RVR RNG VA  1400   36     360/ 12/ 14 1028.5F
YORKTOWN VA      1400   35 51  330/ 10/ 12 1029.0S
JAMESTOWN VA     1400   35 48  360/ 10/ 16   N/A     1
DOMINION TERM VA 1400   37      10/  4/ 10 1028.9S
KIPTOPEKE VA     1400      52  340/ 20/ 24   N/A
CHES BAY BRIDGE  1400   38 51  330/ 19/ 25 1028.2R
CAPE HENRY VA    1400   38     340/ 22/ 26 1027.1R
CHESAPEAKE LGHT  1300   39     340/ 21/ 23 1027.9R
WILLOUBY STN VA  1400   36     350/ 15/ 16 1027.4R
S CRANEY ISL VA  1400          320/ 15/ 21 1028.9R
CAPE HENRY BUOY  1300      56                N/A     4/ 5
1ST LANDING BUOY 1400   40 52  330/ 21/ 25 1028.2R   4/ 4
CAPE CHARLES BUO 1400      54                N/A     4/ 5   2/15
64NM E OF VA BCH 1400   43 61  340/ 21/ 25 1026.5R   7/ 6
DUCK PIER NC     1400   43 55   10/ 17/ 21 1026.4R
44100 DUCK FRF   1400      58                N/A     4/ 5
44056 DUCK FRF   1400      56                N/A     4/ 5
OREGON INLET NC  1400   46 46  330/ 14/ 19 1026.6R
HATTERAS NC      1400   45 53  330/ 16/ 20 1027.6R
DIAMOND SHLS NC  1300   51     310/ 19/ 23 1025.6R   6/ 8   3/ 8


USA.gov is the U.S. government's official web portal to all federal, state and local government web resources and services.